| time (UTC) | temp F | wind direction | speed MPH | gust MPH | rain 1hr in | rain 24hr in | rain mn in | humidity % | barometer mb |
| 20260507021019 | 44 | 238 | 0.0 | 1.0 | 0.00 | 0.61 | 0.57 | 91 | 1008.9 |
| 20260507020517 | 44 | 238 | 0.0 | 0.0 | 0.00 | 0.61 | 0.57 | 92 | 1008.9 |
| 20260507020245 | 44 | 238 | 0.0 | 0.0 | 0.00 | 0.61 | 0.57 | 91 | 1008.9 |
| 20260507015744 | 44 | 238 | 0.0 | 1.0 | 0.00 | 0.61 | 0.57 | 91 | 1008.9 |
| 20260507015011 | 44 | 238 | 0.0 | 1.0 | 0.00 | 0.61 | 0.57 | 91 | 1009.1 |
| 20260507014510 | 44 | 237 | 0.0 | 1.0 | 0.00 | 0.61 | 0.57 | 91 | 1009.2 |
| 20260507014010 | 44 | 237 | 0.0 | 1.0 | 0.00 | 0.61 | 0.57 | 91 | 1009.3 |
| 20260507013508 | 44 | 237 | 0.0 | 1.0 | 0.00 | 0.61 | 0.57 | 91 | 1009.1 |
| 20260507013008 | 44 | 237 | 0.0 | 1.0 | 0.00 | 0.61 | 0.57 | 91 | 1009.2 |
| 20260507012508 | 44 | 243 | 0.0 | 1.0 | 0.00 | 0.61 | 0.57 | 91 | 1009.2 |
| 20260507012003 | 44 | 243 | 0.0 | 1.0 | 0.00 | 0.61 | 0.57 | 91 | 1009.3 |
| 20260507011733 | 44 | 243 | 0.0 | 1.0 | 0.00 | 0.61 | 0.57 | 91 | 1009.2 |
| 20260507010959 | 44 | 243 | 0.0 | 0.0 | 0.00 | 0.61 | 0.57 | 92 | 1009.2 |
| 20260507010728 | 44 | 243 | 0.0 | 0.0 | 0.00 | 0.61 | 0.57 | 91 | 1009.1 |
| 20260507005954 | 44 | 243 | 0.0 | 0.0 | 0.00 | 0.61 | 0.57 | 91 | 1009.0 |
| 20260507005453 | 44 | 243 | 0.0 | 0.0 | 0.00 | 0.61 | 0.57 | 91 | 1009.0 |
| 20260507004954 | 44 | 243 | 0.0 | 0.0 | 0.00 | 0.61 | 0.57 | 91 | 1008.8 |
| 20260507004451 | 44 | 243 | 0.0 | 0.0 | 0.00 | 0.61 | 0.57 | 91 | 1008.9 |
| 20260507003950 | 44 | 243 | 0.0 | 1.0 | 0.00 | 0.61 | 0.57 | 91 | 1008.8 |
| 20260507003447 | 44 | 243 | 0.0 | 1.0 | 0.00 | 0.61 | 0.57 | 91 | 1008.8 |
| 20260507002947 | 44 | 243 | 0.0 | 1.0 | 0.00 | 0.61 | 0.57 | 91 | 1008.9 |
| 20260507002445 | 44 | 238 | 0.0 | 0.0 | 0.00 | 0.61 | 0.57 | 90 | 1008.7 |
| 20260507001944 | 44 | 239 | 0.0 | 0.0 | 0.00 | 0.61 | 0.57 | 90 | 1008.7 |
| 20260507001440 | 45 | 238 | 0.0 | 0.0 | 0.00 | 0.61 | 0.57 | 90 | 1008.6 |
| 20260507000938 | 45 | 238 | 0.0 | 1.0 | 0.00 | 0.61 | 0.57 | 89 | 1008.6 |
| 20260507000442 | 45 | 238 | 0.0 | 1.0 | 0.00 | 0.61 | 0.57 | 88 | 1008.4 |
| 20260506235936 | 45 | 238 | 0.0 | 0.0 | 0.00 | 0.61 | 0.57 | 88 | 1008.4 |
| 20260506235436 | 45 | 238 | 0.0 | 1.0 | 0.00 | 0.61 | 0.57 | 88 | 1008.4 |
| 20260506234936 | 45 | 239 | 0.0 | 1.0 | 0.00 | 0.61 | 0.57 | 88 | 1008.5 |
| 20260506234437 | 45 | 246 | 0.0 | 0.0 | 0.00 | 0.61 | 0.57 | 88 | 1008.5 |
| 20260506233931 | 45 | 246 | 0.0 | 1.0 | 0.00 | 0.61 | 0.57 | 88 | 1008.5 |
| 20260506233431 | 46 | 246 | 0.0 | 2.0 | 0.00 | 0.61 | 0.57 | 88 | 1008.5 |
| 20260506233203 | 46 | 245 | 0.0 | 2.0 | 0.00 | 0.61 | 0.57 | 87 | 1008.3 |
| 20260506232429 | 46 | 245 | 0.0 | 1.0 | 0.00 | 0.61 | 0.57 | 86 | 1008.2 |
| 20260506231928 | 46 | 246 | 0.0 | 1.0 | 0.00 | 0.61 | 0.57 | 86 | 1008.2 |
| 20260506231425 | 46 | 246 | 0.0 | 3.0 | 0.00 | 0.61 | 0.57 | 85 | 1008.1 |
| 20260506230925 | 47 | 271 | 0.0 | 3.0 | 0.00 | 0.61 | 0.57 | 85 | 1008.0 |
| 20260506230420 | 47 | 277 | 0.0 | 1.0 | 0.00 | 0.61 | 0.57 | 85 | 1008.1 |
| 20260506230151 | 47 | 277 | 0.0 | 1.0 | 0.00 | 0.61 | 0.57 | 85 | 1008.1 |
| 20260506225421 | 47 | 311 | 0.0 | 1.0 | 0.00 | 0.61 | 0.57 | 83 | 1008.2 |
| 20260506225151 | 47 | 286 | 0.0 | 1.0 | 0.00 | 0.61 | 0.57 | 84 | 1008.1 |
| 20260506224420 | 47 | 307 | 0.0 | 1.0 | 0.00 | 0.61 | 0.57 | 85 | 1008.1 |
| 20260506223917 | 47 | 307 | 0.0 | 2.0 | 0.00 | 0.61 | 0.57 | 84 | 1008.1 |
| 20260506223416 | 47 | 307 | 0.0 | 2.0 | 0.00 | 0.61 | 0.57 | 84 | 1008.1 |
| 20260506222910 | 47 | 233 | 0.0 | 1.0 | 0.00 | 0.61 | 0.57 | 84 | 1008.1 |
| 20260506222411 | 47 | 233 | 0.0 | 1.0 | 0.00 | 0.61 | 0.57 | 84 | 1008.2 |
| 20260506221910 | 47 | 233 | 0.0 | 1.0 | 0.00 | 0.61 | 0.57 | 83 | 1008.2 |
| 20260506221410 | 47 | 321 | 0.0 | 1.0 | 0.00 | 0.61 | 0.57 | 83 | 1008.3 |
| 20260506220911 | 47 | 231 | 0.0 | 1.0 | 0.00 | 0.61 | 0.57 | 84 | 1008.3 |
| 20260506220638 | 47 | 231 | 0.0 | 1.0 | 0.00 | 0.61 | 0.57 | 83 | 1008.3 |
| 20260506215908 | 47 | 277 | 0.0 | 1.0 | 0.00 | 0.61 | 0.57 | 84 | 1008.1 |
| 20260506215402 | 47 | 235 | 0.0 | 2.0 | 0.00 | 0.61 | 0.57 | 83 | 1008.1 |
| 20260506214900 | 47 | 235 | 0.0 | 2.0 | 0.00 | 0.61 | 0.57 | 84 | 1008.2 |
| 20260506214359 | 47 | 306 | 0.0 | 2.0 | 0.00 | 0.61 | 0.57 | 84 | 1008.3 |
| 20260506213857 | 47 | 289 | 0.0 | 2.0 | 0.00 | 0.61 | 0.57 | 85 | 1008.2 |
| 20260506213354 | 47 | 289 | 0.0 | 2.0 | 0.00 | 0.61 | 0.57 | 86 | 1008.2 |
| 20260506212855 | 47 | 298 | 0.0 | 1.0 | 0.00 | 0.61 | 0.57 | 86 | 1008.2 |
| 20260506212349 | 47 | 280 | 0.0 | 3.0 | 0.00 | 0.61 | 0.57 | 85 | 1008.2 |
| 20260506212116 | 46 | 280 | 0.0 | 3.0 | 0.00 | 0.61 | 0.57 | 85 | 1008.0 |
| 20260506211347 | 46 | 314 | 0.0 | 2.0 | 0.00 | 0.61 | 0.57 | 85 | 1008.1 |
| 20260506210847 | 46 | 9 | 1.0 | 2.0 | 0.00 | 0.61 | 0.57 | 84 | 1008.1 |
| 20260506210346 | 46 | 311 | 0.0 | 3.0 | 0.00 | 0.61 | 0.57 | 85 | 1008.2 |
| 20260506205846 | 46 | 311 | 0.0 | 3.0 | 0.00 | 0.61 | 0.57 | 85 | 1008.4 |
| 20260506205348 | 46 | 310 | 0.0 | 3.0 | 0.00 | 0.61 | 0.57 | 85 | 1008.3 |
| 20260506205111 | 46 | 316 | 1.0 | 3.0 | 0.00 | 0.61 | 0.57 | 84 | 1008.4 |
| 20260506204341 | 46 | 253 | 0.0 | 3.0 | 0.00 | 0.61 | 0.57 | 84 | 1008.3 |
| 20260506203839 | 47 | 285 | 0.0 | 4.0 | 0.00 | 0.62 | 0.57 | 85 | 1008.2 |
| 20260506203338 | 47 | 229 | 0.0 | 4.0 | 0.00 | 0.62 | 0.57 | 87 | 1008.2 |
| 20260506203109 | 47 | 248 | 0.0 | 4.0 | 0.01 | 0.62 | 0.57 | 86 | 1008.3 |
| 20260506202610 | 47 | 316 | 0.0 | 4.0 | 0.01 | 0.62 | 0.57 | 86 | 1008.3 |
| 20260506201838 | 46 | 293 | 0.0 | 3.0 | 0.01 | 0.62 | 0.57 | 87 | 1008.4 |
| 20260506201338 | 46 | 236 | 0.0 | 2.0 | 0.01 | 0.62 | 0.57 | 87 | 1008.4 |
| 20260506200838 | 46 | 300 | 1.0 | 4.0 | 0.01 | 0.62 | 0.57 | 88 | 1008.3 |
| 20260506200339 | 46 | 225 | 1.0 | 4.0 | 0.01 | 0.62 | 0.57 | 88 | 1008.3 |
| 20260506195840 | 46 | 291 | 0.0 | 4.0 | 0.01 | 0.62 | 0.57 | 88 | 1008.4 |
| 20260506195610 | 46 | 281 | 0.0 | 4.0 | 0.01 | 0.62 | 0.57 | 88 | 1008.4 |
| 20260506195108 | 46 | 264 | 0.0 | 1.0 | 0.01 | 0.62 | 0.57 | 89 | 1008.4 |
| 20260506194337 | 46 | 281 | 0.0 | 1.0 | 0.01 | 0.62 | 0.57 | 89 | 1008.4 |
| 20260506193836 | 46 | 323 | 0.0 | 1.0 | 0.01 | 0.62 | 0.57 | 89 | 1008.4 |
| 20260506193332 | 46 | 323 | 0.0 | 1.0 | 0.01 | 0.62 | 0.57 | 87 | 1008.4 |
| 20260506192831 | 46 | 332 | 0.0 | 1.0 | 0.00 | 0.61 | 0.57 | 88 | 1008.3 |
| 20260506192333 | 46 | 332 | 0.0 | 1.0 | 0.01 | 0.61 | 0.57 | 89 | 1008.4 |
| 20260506191832 | 46 | 332 | 0.0 | 1.0 | 0.01 | 0.61 | 0.57 | 88 | 1008.4 |
| 20260506191602 | 46 | 334 | 0.0 | 1.0 | 0.01 | 0.61 | 0.57 | 87 | 1008.4 |
| 20260506190832 | 46 | 319 | 0.0 | 1.0 | 0.01 | 0.63 | 0.57 | 88 | 1008.4 |
| 20260506190333 | 46 | 338 | 0.0 | 1.0 | 0.01 | 0.64 | 0.57 | 86 | 1008.4 |
| 20260506185832 | 46 | 302 | 0.0 | 2.0 | 0.01 | 0.64 | 0.57 | 88 | 1008.4 |
| 20260506185332 | 46 | 356 | 0.0 | 2.0 | 0.02 | 0.65 | 0.57 | 87 | 1008.3 |
| 20260506185105 | 46 | 65 | 0.0 | 3.0 | 0.02 | 0.65 | 0.57 | 87 | 1008.4 |
| 20260506184332 | 46 | 65 | 0.0 | 3.0 | 0.02 | 0.70 | 0.57 | 87 | 1008.4 |
| 20260506183832 | 46 | 286 | 0.0 | 4.0 | 0.02 | 0.72 | 0.57 | 88 | 1008.4 |
| 20260506183332 | 46 | 47 | 0.0 | 4.0 | 0.02 | 0.72 | 0.57 | 86 | 1008.5 |
| 20260506182833 | 46 | 55 | 0.0 | 2.0 | 0.02 | 0.72 | 0.57 | 86 | 1008.5 |
| 20260506182334 | 46 | 281 | 0.0 | 2.0 | 0.02 | 0.71 | 0.56 | 87 | 1008.5 |
| 20260506181828 | 46 | 30 | 0.0 | 2.0 | 0.02 | 0.71 | 0.56 | 89 | 1008.6 |
| 20260506181329 | 46 | 236 | 0.0 | 2.0 | 0.02 | 0.71 | 0.56 | 90 | 1008.7 |
| 20260506180829 | 46 | 58 | 0.0 | 3.0 | 0.02 | 0.71 | 0.56 | 90 | 1008.7 |
| 20260506180556 | 45 | 268 | 0.0 | 3.0 | 0.02 | 0.71 | 0.56 | 91 | 1008.8 |
| 20260506175824 | 45 | 304 | 0.0 | 3.0 | 0.03 | 0.71 | 0.56 | 90 | 1009.0 |
| 20260506175323 | 45 | 304 | 0.0 | 3.0 | 0.02 | 0.70 | 0.55 | 90 | 1009.0 |
| 20260506174819 | 45 | 285 | 0.0 | 4.0 | 0.03 | 0.70 | 0.55 | 90 | 1009.0 |
| 20260506174552 | 45 | 325 | 0.0 | 4.0 | 0.03 | 0.70 | 0.55 | 90 | 1009.2 |
| 20260506173818 | 45 | 293 | 0.0 | 2.0 | 0.03 | 0.69 | 0.54 | 92 | 1009.1 |
| 20260506173316 | 44 | 316 | 0.0 | 4.0 | 0.04 | 0.69 | 0.54 | 91 | 1009.1 |
| 20260506172816 | 44 | 95 | 1.0 | 4.0 | 0.04 | 0.69 | 0.54 | 91 | 1009.2 |
| 20260506172545 | 44 | 311 | 1.0 | 4.0 | 0.05 | 0.69 | 0.54 | 91 | 1009.3 |
| 20260506171814 | 44 | 302 | 1.0 | 3.0 | 0.06 | 0.69 | 0.54 | 92 | 1009.3 |
| 20260506171315 | 44 | 319 | 0.0 | 3.0 | 0.06 | 0.69 | 0.54 | 92 | 1009.3 |
| 20260506170811 | 44 | 309 | 0.0 | 2.0 | 0.06 | 0.69 | 0.54 | 92 | 1009.3 |
| 20260506170543 | 44 | 309 | 1.0 | 4.0 | 0.07 | 0.69 | 0.54 | 92 | 1009.4 |
| 20260506165812 | 44 | 310 | 1.0 | 4.0 | 0.07 | 0.68 | 0.53 | 91 | 1009.3 |
| 20260506165307 | 44 | 297 | 1.0 | 4.0 | 0.08 | 0.68 | 0.53 | 92 | 1009.3 |
| 20260506164806 | 44 | 347 | 1.0 | 5.0 | 0.07 | 0.67 | 0.52 | 91 | 1009.4 |
| 20260506164306 | 44 | 303 | 1.0 | 5.0 | 0.08 | 0.67 | 0.52 | 92 | 1009.5 |
| 20260506163803 | 44 | 338 | 1.0 | 4.0 | 0.09 | 0.66 | 0.51 | 92 | 1009.6 |
| 20260506163303 | 44 | 300 | 0.0 | 3.0 | 0.09 | 0.65 | 0.50 | 92 | 1009.6 |
| 20260506162804 | 44 | 335 | 0.0 | 3.0 | 0.09 | 0.65 | 0.50 | 92 | 1009.8 |
| 20260506162301 | 44 | 300 | 1.0 | 3.0 | 0.09 | 0.65 | 0.50 | 92 | 1009.7 |
| 20260506161802 | 44 | 323 | 1.0 | 3.0 | 0.09 | 0.64 | 0.49 | 92 | 1009.7 |
| 20260506161255 | 44 | 297 | 1.0 | 3.0 | 0.09 | 0.63 | 0.48 | 91 | 1009.7 |
| 20260506160754 | 44 | 351 | 0.0 | 3.0 | 0.09 | 0.62 | 0.47 | 92 | 1009.7 |
| 20260506160251 | 44 | 319 | 0.0 | 3.0 | 0.09 | 0.61 | 0.46 | 92 | 1009.9 |
| 20260506155750 | 44 | 304 | 0.0 | 2.0 | 0.09 | 0.61 | 0.46 | 92 | 1009.9 |
| 20260506155249 | 44 | 304 | 0.0 | 3.0 | 0.09 | 0.60 | 0.46 | 92 | 1009.9 |
| 20260506154748 | 44 | 330 | 0.0 | 3.0 | 0.09 | 0.60 | 0.45 | 92 | 1009.9 |
| 20260506154247 | 44 | 236 | 0.0 | 2.0 | 0.09 | 0.59 | 0.44 | 92 | 1009.9 |
| 20260506153745 | 44 | 356 | 0.0 | 3.0 | 0.08 | 0.57 | 0.43 | 92 | 1009.8 |
| 20260506153517 | 44 | 29 | 1.0 | 3.0 | 0.08 | 0.57 | 0.42 | 92 | 1010.0 |
| 20260506152743 | 44 | 270 | 0.0 | 3.0 | 0.07 | 0.56 | 0.41 | 92 | 1009.9 |
| 20260506152242 | 44 | 304 | 0.0 | 3.0 | 0.07 | 0.55 | 0.40 | 92 | 1010.1 |
| 20260506151739 | 44 | 245 | 0.0 | 2.0 | 0.07 | 0.54 | 0.39 | 92 | 1010.0 |
| 20260506150733 | 44 | 349 | 0.0 | 2.0 | 0.07 | 0.54 | 0.39 | 93 | 1009.9 |
| 20260506150231 | 44 | 319 | 0.0 | 2.0 | 0.07 | 0.53 | 0.38 | 92 | 1010.0 |
| 20260506145730 | 44 | 290 | 0.0 | 2.0 | 0.06 | 0.52 | 0.37 | 92 | 1009.9 |
| 20260506145230 | 44 | 276 | 0.0 | 1.0 | 0.06 | 0.51 | 0.36 | 92 | 1010.0 |
| 20260506144956 | 44 | 276 | 0.0 | 1.0 | 0.06 | 0.50 | 0.35 | 92 | 1010.1 |
| 20260506144227 | 44 | 253 | 0.0 | 1.0 | 0.06 | 0.50 | 0.35 | 92 | 1010.2 |
| 20260506143951 | 44 | 253 | 0.0 | 1.0 | 0.06 | 0.50 | 0.35 | 92 | 1010.0 |
| 20260506143448 | 44 | 253 | 0.0 | 1.0 | 0.05 | 0.49 | 0.34 | 92 | 1009.9 |
| 20260506142715 | 44 | 253 | 0.0 | 1.0 | 0.06 | 0.49 | 0.34 | 92 | 1010.1 |
| 20260506142213 | 43 | 235 | 0.0 | 1.0 | 0.05 | 0.48 | 0.33 | 92 | 1010.1 |
| 20260506141712 | 43 | 235 | 0.0 | 1.0 | 0.05 | 0.47 | 0.32 | 91 | 1010.1 |
| 20260506141212 | 43 | 235 | 0.0 | 1.0 | 0.05 | 0.46 | 0.32 | 91 | 1010.1 |
| 20260506140708 | 43 | 235 | 0.0 | 2.0 | 0.05 | 0.46 | 0.31 | 91 | 1010.0 |
| 20260506140207 | 43 | 294 | 0.0 | 2.0 | 0.04 | 0.46 | 0.31 | 92 | 1010.1 |
| 20260506135706 | 43 | 285 | 0.0 | 2.0 | 0.05 | 0.46 | 0.31 | 92 | 1010.0 |
| 20260506135204 | 43 | 285 | 0.0 | 2.0 | 0.04 | 0.45 | 0.31 | 92 | 1009.8 |
| 20260506134703 | 43 | 324 | 0.0 | 2.0 | 0.05 | 0.45 | 0.30 | 92 | 1008.8 |
| 20260506134152 | 43 | 358 | 0.0 | 3.0 | 0.04 | 0.44 | 0.29 | 91 | 1008.9 |
| 20260506133447 | 43 | 280 | 0.0 | 4.0 | 0.05 | 0.44 | 0.29 | 91 | 1009.9 |
| 20260506132947 | 43 | 264 | 0.0 | 1.0 | 0.04 | 0.43 | 0.28 | 91 | 1009.9 |
| 20260506132448 | 43 | 261 | 0.0 | 1.0 | 0.05 | 0.43 | 0.28 | 91 | 1009.9 |
| 20260506132214 | 43 | 244 | 0.0 | 1.0 | 0.04 | 0.43 | 0.28 | 92 | 1010.0 |
| 20260506131440 | 43 | 257 | 0.0 | 1.0 | 0.04 | 0.42 | 0.28 | 92 | 1010.1 |
| 20260506130937 | 43 | 256 | 0.0 | 2.0 | 0.05 | 0.42 | 0.27 | 91 | 1010.1 |
| 20260506130707 | 43 | 247 | 0.0 | 2.0 | 0.06 | 0.42 | 0.27 | 91 | 1010.0 |
| 20260506130203 | 43 | 107 | 0.0 | 2.0 | 0.06 | 0.42 | 0.27 | 92 | 1009.9 |
| 20260506125702 | 43 | 81 | 0.0 | 2.0 | 0.06 | 0.41 | 0.26 | 91 | 1009.9 |
| 20260506124931 | 43 | 256 | 0.0 | 3.0 | 0.06 | 0.41 | 0.26 | 91 | 1010.1 |
| 20260506124426 | 43 | 287 | 0.0 | 3.0 | 0.06 | 0.40 | 0.25 | 91 | 1010.2 |
| 20260506123923 | 44 | 269 | 0.0 | 3.0 | 0.07 | 0.40 | 0.25 | 91 | 1010.2 |
| 20260506123421 | 44 | 268 | 0.0 | 3.0 | 0.06 | 0.40 | 0.24 | 92 | 1010.3 |
| 20260506122416 | 44 | 248 | 0.0 | 2.0 | 0.08 | 0.40 | 0.24 | 92 | 1010.4 |
| 20260506122147 | 44 | 283 | 0.0 | 2.0 | 0.09 | 0.42 | 0.24 | 91 | 1010.4 |
| 20260506121418 | 44 | 289 | 0.0 | 1.0 | 0.09 | 0.42 | 0.23 | 91 | 1010.3 |
| 20260506120918 | 44 | 302 | 0.0 | 2.0 | 0.10 | 0.41 | 0.22 | 91 | 1010.3 |
| 20260506120419 | 44 | 249 | 0.0 | 2.0 | 0.10 | 0.40 | 0.21 | 91 | 1010.4 |
| 20260506115915 | 44 | 302 | 0.0 | 1.0 | 0.10 | 0.39 | 0.20 | 91 | 1010.3 |
| 20260506115648 | 44 | 316 | 0.0 | 1.0 | 0.10 | 0.39 | 0.20 | 91 | 1010.3 |
| 20260506114915 | 44 | 233 | 0.0 | 2.0 | 0.11 | 0.39 | 0.20 | 91 | 1010.3 |
| 20260506114414 | 44 | 308 | 1.0 | 2.0 | 0.12 | 0.38 | 0.19 | 91 | 1010.3 |
| 20260506114147 | 44 | 319 | 0.0 | 2.0 | 0.11 | 0.37 | 0.18 | 92 | 1010.4 |
| 20260506113646 | 44 | 316 | 0.0 | 2.0 | 0.12 | 0.37 | 0.18 | 92 | 1010.3 |
| 20260506112914 | 44 | 198 | 0.0 | 2.0 | 0.11 | 0.35 | 0.17 | 91 | 1010.4 |
| 20260506112416 | 44 | 319 | 0.0 | 2.0 | 0.10 | 0.35 | 0.16 | 91 | 1010.6 |
| 20260506111916 | 44 | 290 | 0.0 | 2.0 | 0.09 | 0.33 | 0.14 | 91 | 1010.5 |
| 20260506111416 | 44 | 94 | 0.0 | 2.0 | 0.08 | 0.31 | 0.13 | 91 | 1010.6 |
| 20260506110915 | 44 | 265 | 0.0 | 2.0 | 0.08 | 0.31 | 0.12 | 90 | 1010.7 |
| 20260506110415 | 44 | 281 | 0.0 | 2.0 | 0.07 | 0.30 | 0.11 | 90 | 1010.6 |
| 20260506105915 | 45 | 305 | 0.0 | 2.0 | 0.06 | 0.29 | 0.10 | 90 | 1010.4 |
| 20260506105416 | 45 | 275 | 0.0 | 2.0 | 0.06 | 0.28 | 0.09 | 90 | 1010.1 |
| 20260506104915 | 45 | 276 | 0.0 | 2.0 | 0.05 | 0.28 | 0.09 | 90 | 1010.1 |
| 20260506104642 | 45 | 254 | 0.0 | 1.0 | 0.03 | 0.26 | 0.07 | 90 | 1009.9 |
| 20260506103910 | 45 | 254 | 0.0 | 1.0 | 0.03 | 0.26 | 0.07 | 90 | 1009.9 |
| 20260506103410 | 45 | 254 | 0.0 | 1.0 | 0.02 | 0.25 | 0.06 | 89 | 1009.7 |
| 20260506102910 | 45 | 254 | 0.0 | 1.0 | 0.02 | 0.24 | 0.06 | 89 | 1009.6 |
| 20260506102413 | 45 | 254 | 0.0 | 0.0 | 0.02 | 0.24 | 0.06 | 88 | 1009.6 |
| 20260506102138 | 45 | 254 | 0.0 | 0.0 | 0.01 | 0.24 | 0.06 | 87 | 1009.5 |
| 20260506101407 | 45 | 254 | 0.0 | 0.0 | 0.01 | 0.24 | 0.05 | 87 | 1009.7 |
| 20260506100907 | 46 | 254 | 0.0 | 1.0 | 0.00 | 0.23 | 0.04 | 87 | 1009.9 |
| 20260506100406 | 46 | 254 | 0.0 | 1.0 | 0.00 | 0.23 | 0.04 | 86 | 1009.7 |
| 20260506095904 | 46 | 255 | 0.0 | 2.0 | 0.00 | 0.23 | 0.04 | 86 | 1009.8 |
| 20260506095404 | 46 | 177 | 0.0 | 2.0 | 0.00 | 0.23 | 0.04 | 86 | 1009.7 |
| 20260506094903 | 46 | 229 | 0.0 | 3.0 | 0.00 | 0.23 | 0.04 | 86 | 1009.6 |
| 20260506094404 | 46 | 277 | 0.0 | 3.0 | 0.00 | 0.23 | 0.04 | 85 | 1009.7 |
| 20260506094128 | 46 | 248 | 0.0 | 2.0 | 0.00 | 0.23 | 0.04 | 85 | 1009.7 |
| 20260506093357 | 46 | 269 | 0.0 | 3.0 | 0.00 | 0.23 | 0.04 | 86 | 1009.5 |
| 20260506092856 | 46 | 278 | 0.0 | 3.0 | 0.00 | 0.23 | 0.04 | 86 | 1009.4 |
| 20260506092353 | 46 | 241 | 0.0 | 2.0 | 0.00 | 0.23 | 0.04 | 86 | 1009.6 |
| 20260506091852 | 46 | 215 | 0.0 | 2.0 | 0.00 | 0.23 | 0.04 | 87 | 1009.5 |
| 20260506091620 | 46 | 189 | 0.0 | 2.0 | 0.00 | 0.23 | 0.04 | 86 | 1009.5 |
| 20260506090849 | 46 | 228 | 0.0 | 2.0 | 0.00 | 0.23 | 0.04 | 86 | 1009.5 |
| 20260506090347 | 46 | 250 | 0.0 | 1.0 | 0.00 | 0.23 | 0.04 | 86 | 1009.5 |
| 20260506085343 | 46 | 266 | 0.0 | 2.0 | 0.00 | 0.23 | 0.04 | 86 | 1009.4 |
| 20260506084843 | 46 | 250 | 0.0 | 2.0 | 0.00 | 0.23 | 0.04 | 87 | 1009.4 |
| 20260506084342 | 46 | 243 | 0.0 | 4.0 | 0.00 | 0.23 | 0.04 | 87 | 1009.4 |
| 20260506083838 | 46 | 227 | 0.0 | 4.0 | 0.00 | 0.23 | 0.04 | 87 | 1009.6 |
| 20260506083337 | 46 | 283 | 0.0 | 3.0 | 0.00 | 0.23 | 0.04 | 87 | 1009.7 |
| 20260506083107 | 46 | 282 | 0.0 | 3.0 | 0.01 | 0.23 | 0.04 | 87 | 1009.6 |
| 20260506082338 | 46 | 247 | 0.0 | 2.0 | 0.01 | 0.23 | 0.04 | 88 | 1009.6 |
| 20260506081837 | 46 | 245 | 0.0 | 1.0 | 0.02 | 0.23 | 0.04 | 88 | 1009.6 |
| 20260506081334 | 46 | 203 | 0.0 | 2.0 | 0.02 | 0.23 | 0.04 | 88 | 1009.4 |
| 20260506080834 | 46 | 265 | 0.0 | 2.0 | 0.02 | 0.23 | 0.04 | 88 | 1009.5 |
| 20260506080335 | 46 | 253 | 0.0 | 2.0 | 0.02 | 0.23 | 0.04 | 89 | 1009.4 |
| 20260506073324 | 47 | 231 | 0.0 | 2.0 | 0.02 | 0.23 | 0.04 | 89 | 1009.6 |
| 20260506072824 | 47 | 253 | 0.0 | 2.0 | 0.02 | 0.22 | 0.03 | 89 | 1009.6 |
| 20260506072555 | 47 | 283 | 0.0 | 3.0 | 0.02 | 0.22 | 0.03 | 89 | 1009.5 |
| 20260506071825 | 47 | 221 | 1.0 | 3.0 | 0.01 | 0.21 | 0.03 | 89 | 1009.5 |
| 20260506071319 | 47 | 219 | 0.0 | 3.0 | 0.01 | 0.21 | 0.02 | 89 | 1009.7 |
| 20260506070818 | 47 | 215 | 0.0 | 1.0 | 0.02 | 0.21 | 0.02 | 89 | 1009.3 |
| 20260506070545 | 47 | 215 | 0.0 | 2.0 | 0.02 | 0.21 | 0.02 | 89 | 1009.1 |
| 20260506062306 | 48 | 222 | 0.0 | 2.0 | 0.02 | 0.20 | 0.02 | 90 | 1009.4 |
| 20260506061802 | 48 | 240 | 0.0 | 2.0 | 0.02 | 0.20 | 0.02 | 90 | 1009.4 |
| 20260506061534 | 48 | 244 | 0.0 | 2.0 | 0.02 | 0.20 | 0.02 | 90 | 1009.0 |
| 20260506060802 | 48 | 210 | 0.0 | 2.0 | 0.01 | 0.20 | 0.01 | 90 | 1009.0 |
| 20260506060302 | 48 | 157 | 0.0 | 2.0 | 0.01 | 0.20 | 0.01 | 90 | 1009.0 |
| 20260506051246 | 48 | 166 | 0.0 | 1.0 | 0.00 | 0.19 | 0.00 | 86 | 1009.3 |
| 20260506050742 | 48 | 200 | 0.0 | 1.0 | 0.00 | 0.19 | 0.00 | 86 | 1009.3 |
| 20260506050243 | 48 | 200 | 0.0 | 2.0 | 0.00 | 0.19 | 0.00 | 86 | 1009.3 |
| 20260506045003 | 48 | 210 | 0.0 | 3.0 | 0.00 | 0.19 | 0.00 | 85 | 1009.2 |
| 20260506044502 | 48 | 236 | 0.0 | 2.0 | 0.00 | 0.19 | 0.00 | 85 | 1008.9 |
| 20260506043728 | 48 | 236 | 0.0 | 2.0 | 0.01 | 0.19 | 0.00 | 84 | 1009.0 |
| 20260506043228 | 48 | 233 | 0.0 | 3.0 | 0.01 | 0.19 | 0.00 | 84 | 1008.9 |
| 20260506042726 | 48 | 229 | 0.0 | 3.0 | 0.02 | 0.19 | 0.00 | 84 | 1008.8 |
| 20260506042226 | 48 | 259 | 1.0 | 4.0 | 0.02 | 0.19 | 0.00 | 83 | 1008.9 |
| 20260506042010 | 48 | 224 | 1.0 | 5.0 | 0.02 | 0.19 | 0.00 | 83 | 1008.8 |
| 20260506041457 | 48 | 204 | 1.0 | 5.0 | 0.02 | 0.19 | 0.00 | 83 | 1008.8 |
| 20260506040726 | 48 | 236 | 1.0 | 4.0 | 0.03 | 0.19 | 0.00 | 83 | 1008.6 |
| 20260506040227 | 49 | 220 | 1.0 | 5.0 | 0.03 | 0.19 | 0.00 | 84 | 1008.3 |
| 20260506035225 | 49 | 243 | 1.0 | 5.0 | 0.03 | 0.19 | 0.19 | 83 | 1007.9 |
| 20260506034725 | 49 | 197 | 1.0 | 8.0 | 0.03 | 0.19 | 0.19 | 82 | 1007.7 |
| 20260506034223 | 49 | 253 | 2.0 | 8.0 | 0.03 | 0.19 | 0.19 | 81 | 1007.8 |
| 20260506033723 | 50 | 262 | 2.0 | 7.0 | 0.02 | 0.18 | 0.18 | 79 | 1007.8 |
| 20260506033224 | 50 | 223 | 2.0 | 7.0 | 0.02 | 0.18 | 0.18 | 80 | 1007.9 |
| 20260506032950 | 51 | 210 | 2.0 | 7.0 | 0.02 | 0.17 | 0.17 | 80 | 1007.8 |
| 20260506032450 | 51 | 267 | 3.0 | 12.0 | 0.02 | 0.17 | 0.17 | 80 | 1007.7 |
| 20260506031719 | 52 | 261 | 3.0 | 12.0 | 0.01 | 0.17 | 0.17 | 81 | 1007.7 |
| 20260506031450 | 52 | 256 | 3.0 | 10.0 | 0.01 | 0.17 | 0.17 | 80 | 1007.5 |
| 20260506030720 | 53 | 231 | 3.0 | 10.0 | 0.00 | 0.16 | 0.16 | 79 | 1007.5 |
| 20260506030219 | 53 | 244 | 3.0 | 9.0 | 0.01 | 0.16 | 0.16 | 79 | 1007.5 |
| 20260506025719 | 53 | 244 | 3.0 | 9.0 | 0.01 | 0.16 | 0.16 | 78 | 1007.4 |
| 20260506025220 | 53 | 244 | 3.0 | 9.0 | 0.01 | 0.16 | 0.16 | 78 | 1007.4 |
| 20260506024719 | 53 | 229 | 3.0 | 10.0 | 0.01 | 0.16 | 0.16 | 79 | 1007.5 |
| 20260506024220 | 53 | 223 | 4.0 | 11.0 | 0.01 | 0.16 | 0.16 | 80 | 1007.5 |
| 20260506023719 | 53 | 248 | 3.0 | 11.0 | 0.01 | 0.16 | 0.16 | 80 | 1007.5 |
| 20260506023218 | 53 | 271 | 2.0 | 10.0 | 0.01 | 0.16 | 0.16 | 80 | 1007.5 |
| 20260506022718 | 54 | 290 | 3.0 | 9.0 | 0.01 | 0.16 | 0.16 | 80 | 1007.6 |
| 20260506022218 | 54 | 285 | 3.0 | 9.0 | 0.01 | 0.16 | 0.16 | 80 | 1007.4 |
| 20260506021720 | 54 | 245 | 3.0 | 12.0 | 0.01 | 0.16 | 0.16 | 79 | 1007.4 |
| 20260506021215 | 54 | 276 | 4.0 | 12.0 | 0.01 | 0.16 | 0.16 | 78 | 1007.5 |